Time,TemperatureF,DewpointF,PressureIn,WindDirection,WindDirectionDegrees,WindSpeedMPH,WindSpeedGustMPH,Humidity,HourlyPrecipIn,Conditions,Clouds,dailyrainin,SoftwareType,DateUTC
2013-07-16 00:02:00,76.1,73.3,30.10,SSE,157,3.7,-999.0,91,-99.99,,,0.00,Acu-Link.com,2013-07-16 05:02:00,
2013-07-16 00:17:00,75.7,73.2,30.10,South,180,2.7,-999.0,92,-99.99,,,0.00,Acu-Link.com,2013-07-16 05:17:00,
2013-07-16 00:32:00,75.2,72.7,30.09,SE,135,4.2,-999.0,92,-99.99,,,0.00,Acu-Link.com,2013-07-16 05:32:00,
2013-07-16 00:48:00,74.8,72.6,30.09,ESE,112,2.7,-999.0,93,-99.99,,,0.00,Acu-Link.com,2013-07-16 05:48:00,
2013-07-16 01:03:00,74.3,72.5,30.10,ESE,112,1.7,-999.0,94,-99.99,,,0.00,Acu-Link.com,2013-07-16 06:03:00,
2013-07-16 01:18:00,73.9,72.4,30.10,SSE,157,2.2,-999.0,95,-99.99,,,0.00,Acu-Link.com,2013-07-16 06:18:00,
2013-07-16 01:33:00,73.6,72.4,30.10,SE,135,1.7,-999.0,96,-99.99,,,0.00,Acu-Link.com,2013-07-16 06:33:00,
2013-07-16 01:49:00,73.6,72.4,30.10,SSE,157,2.2,-999.0,96,-99.99,,,0.00,Acu-Link.com,2013-07-16 06:49:00,
2013-07-16 02:04:00,73.2,72.3,30.10,East,90,2.2,-999.0,97,-99.99,,,0.00,Acu-Link.com,2013-07-16 07:04:00,
2013-07-16 02:19:00,72.9,72.0,30.09,ENE,67,0.0,-999.0,97,-99.99,,,0.00,Acu-Link.com,2013-07-16 07:19:00,
2013-07-16 02:34:00,73.0,72.1,30.09,East,90,2.2,-999.0,97,-99.99,,,0.00,Acu-Link.com,2013-07-16 07:34:00,
2013-07-16 02:49:00,72.9,72.0,30.09,East,90,2.2,-999.0,97,-99.99,,,0.00,Acu-Link.com,2013-07-16 07:49:00,
2013-07-16 03:05:00,72.5,71.9,30.10,ESE,112,1.1,-999.0,98,-99.99,,,0.00,Acu-Link.com,2013-07-16 08:05:00,
2013-07-16 03:20:00,72.3,71.7,30.09,East,90,1.7,-999.0,98,-99.99,,,0.00,Acu-Link.com,2013-07-16 08:20:00,
2013-07-16 03:35:00,72.3,71.7,30.09,East,90,2.7,-999.0,98,-99.99,,,0.00,Acu-Link.com,2013-07-16 08:35:00,
2013-07-16 03:50:00,72.1,71.5,30.10,South,180,1.7,-999.0,98,-99.99,,,0.00,Acu-Link.com,2013-07-16 08:50:00,
2013-07-16 04:06:00,71.4,70.2,30.10,South,180,2.2,-999.0,96,-99.99,,,0.00,Acu-Link.com,2013-07-16 09:06:00,
2013-07-16 04:21:00,71.2,69.1,30.10,South,180,0.0,-999.0,93,-99.99,,,0.00,Acu-Link.com,2013-07-16 09:21:00,
2013-07-16 04:36:00,71.2,69.1,30.09,ESE,112,0.0,-999.0,93,-99.99,,,0.00,Acu-Link.com,2013-07-16 09:36:00,
2013-07-16 04:51:00,71.1,69.0,30.10,NE,45,2.7,-999.0,93,-99.99,,,0.00,Acu-Link.com,2013-07-16 09:51:00,
2013-07-16 05:06:00,71.1,68.7,30.11,ESE,112,2.7,-999.0,92,-99.99,,,0.00,Acu-Link.com,2013-07-16 10:06:00,
2013-07-16 05:21:00,71.1,68.7,30.11,SSE,157,2.7,-999.0,92,-99.99,,,0.00,Acu-Link.com,2013-07-16 10:21:00,
2013-07-16 05:36:00,71.1,68.3,30.11,SE,135,3.2,-999.0,91,-99.99,,,0.00,Acu-Link.com,2013-07-16 10:36:00,
2013-07-16 05:52:00,70.7,67.3,30.11,SSE,157,2.7,-999.0,89,-99.99,,,0.00,Acu-Link.com,2013-07-16 10:52:00,
2013-07-16 06:07:00,70.5,64.7,30.12,SSE,157,2.7,-999.0,82,-99.99,,,0.00,Acu-Link.com,2013-07-16 11:07:00,
2013-07-16 06:22:00,70.7,64.6,30.12,South,180,2.7,-999.0,81,-99.99,,,0.00,Acu-Link.com,2013-07-16 11:22:00,
2013-07-16 06:37:00,71.1,64.6,30.12,SE,135,2.2,-999.0,80,-99.99,,,0.00,Acu-Link.com,2013-07-16 11:37:00,
2013-07-16 06:52:00,73.0,69.9,30.13,SSE,157,2.7,-999.0,90,-99.99,,,0.00,Acu-Link.com,2013-07-16 11:52:00,
2013-07-16 07:07:00,76.5,74.6,30.13,ESE,112,2.7,-999.0,94,-99.99,,,0.00,Acu-Link.com,2013-07-16 12:07:00,
2013-07-16 07:22:00,78.1,75.3,30.13,SSE,157,2.7,-999.0,91,-99.99,,,0.00,Acu-Link.com,2013-07-16 12:22:00,
2013-07-16 07:38:00,79.5,76.0,30.14,SE,135,3.2,-999.0,89,-99.99,,,0.00,Acu-Link.com,2013-07-16 12:38:00,
2013-07-16 07:53:00,79.7,76.2,30.14,SSE,157,5.3,-999.0,89,-99.99,,,0.00,Acu-Link.com,2013-07-16 12:53:00,
2013-07-16 08:08:00,81.3,76.7,30.15,SSE,157,4.7,-999.0,86,-99.99,,,0.00,Acu-Link.com,2013-07-16 13:08:00,
2013-07-16 08:23:00,81.5,76.5,30.16,South,180,4.7,-999.0,85,-99.99,,,0.00,Acu-Link.com,2013-07-16 13:23:00,
2013-07-16 08:38:00,82.9,77.2,30.16,SSE,157,5.3,-999.0,83,-99.99,,,0.00,Acu-Link.com,2013-07-16 13:38:00,
2013-07-16 08:53:00,82.4,77.1,30.16,South,180,6.3,-999.0,84,-99.99,,,0.00,Acu-Link.com,2013-07-16 13:53:00,
2013-07-16 09:08:00,84.2,77.7,30.17,SSW,202,5.3,-999.0,81,-99.99,,,0.00,Acu-Link.com,2013-07-16 14:08:00,
2013-07-16 09:24:00,85.6,77.5,30.16,SSW,202,4.2,-999.0,77,-99.99,,,0.00,Acu-Link.com,2013-07-16 14:24:00,
2013-07-16 09:39:00,87.3,78.4,30.16,South,180,3.7,-999.0,75,-99.99,,,0.00,Acu-Link.com,2013-07-16 14:39:00,
2013-07-16 09:54:00,84.7,76.7,30.16,ESE,112,5.3,-999.0,77,-99.99,,,0.00,Acu-Link.com,2013-07-16 14:54:00,
2013-07-16 10:09:00,87.1,78.6,30.16,SSE,157,1.1,-999.0,76,-99.99,,,0.00,Acu-Link.com,2013-07-16 15:09:00,
2013-07-16 10:24:00,87.3,78.0,30.17,SSE,157,3.7,-999.0,74,-99.99,,,0.00,Acu-Link.com,2013-07-16 15:24:00,
2013-07-16 10:39:00,88.9,79.1,30.16,East,90,2.2,-999.0,73,-99.99,,,0.00,Acu-Link.com,2013-07-16 15:39:00,
2013-07-16 10:54:00,87.8,77.6,30.17,SSW,202,3.2,-999.0,72,-99.99,,,0.00,Acu-Link.com,2013-07-16 15:54:00,
2013-07-16 11:10:00,87.8,78.5,30.17,South,180,6.3,-999.0,74,-99.99,,,0.00,Acu-Link.com,2013-07-16 16:10:00,
2013-07-16 11:25:00,90.3,79.2,30.18,ESE,112,2.2,-999.0,70,-99.99,,,0.00,Acu-Link.com,2013-07-16 16:25:00,
2013-07-16 11:40:00,86.9,77.2,30.18,South,180,2.2,-999.0,73,-99.99,,,0.00,Acu-Link.com,2013-07-16 16:40:00,
2013-07-16 11:55:00,91.2,79.6,30.17,ESE,112,1.7,-999.0,69,-99.99,,,0.00,Acu-Link.com,2013-07-16 16:55:00,
2013-07-16 12:10:00,91.8,78.8,30.18,SE,135,1.7,-999.0,66,-99.99,,,0.00,Acu-Link.com,2013-07-16 17:10:00,
2013-07-16 12:25:00,92.8,80.2,30.16,East,90,5.3,-999.0,67,-99.99,,,0.00,Acu-Link.com,2013-07-16 17:25:00,
2013-07-16 12:40:00,88.2,76.7,30.18,SSW,202,5.3,-999.0,69,-99.99,,,0.00,Acu-Link.com,2013-07-16 17:40:00,
2013-07-16 12:56:00,91.0,77.1,30.16,SSW,202,2.2,-999.0,64,-99.99,,,0.00,Acu-Link.com,2013-07-16 17:56:00,
2013-07-16 13:11:00,91.6,77.7,30.16,SSE,157,9.4,-999.0,64,-99.99,,,0.00,Acu-Link.com,2013-07-16 18:11:00,
2013-07-16 13:26:00,91.9,77.0,30.15,SE,135,6.8,-999.0,62,-99.99,,,0.00,Acu-Link.com,2013-07-16 18:26:00,
2013-07-16 13:41:00,94.8,78.2,30.15,SSE,157,4.7,-999.0,59,-99.99,,,0.00,Acu-Link.com,2013-07-16 18:41:00,
2013-07-16 13:56:00,93.0,76.5,30.15,South,180,7.3,-999.0,59,-99.99,,,0.00,Acu-Link.com,2013-07-16 18:56:00,
2013-07-16 14:11:00,93.7,76.6,30.14,SE,135,4.7,-999.0,58,-99.99,,,0.00,Acu-Link.com,2013-07-16 19:11:00,
2013-07-16 14:26:00,93.0,76.0,30.14,SSE,157,4.2,-999.0,58,-99.99,,,0.00,Acu-Link.com,2013-07-16 19:26:00,
2013-07-16 14:41:00,92.7,76.7,30.14,South,180,2.2,-999.0,60,-99.99,,,0.00,Acu-Link.com,2013-07-16 19:41:00,
2013-07-16 14:57:00,94.5,75.8,30.13,SSE,157,3.7,-999.0,55,-99.99,,,0.00,Acu-Link.com,2013-07-16 19:57:00,
2013-07-16 15:12:00,93.7,74.5,30.12,South,180,1.7,-999.0,54,-99.99,,,0.00,Acu-Link.com,2013-07-16 20:12:00,
2013-07-16 15:27:00,95.5,75.6,30.13,SSE,157,4.7,-999.0,53,-99.99,,,0.00,Acu-Link.com,2013-07-16 20:27:00,
2013-07-16 15:42:00,95.7,76.3,30.13,SSW,202,4.2,-999.0,54,-99.99,,,0.00,Acu-Link.com,2013-07-16 20:42:00,
2013-07-16 15:57:00,95.0,74.6,30.12,SSW,202,1.7,-999.0,52,-99.99,,,0.00,Acu-Link.com,2013-07-16 20:57:00,
2013-07-16 16:12:00,95.2,75.3,30.11,SSE,157,5.3,-999.0,53,-99.99,,,0.00,Acu-Link.com,2013-07-16 21:12:00,
2013-07-16 16:27:00,94.3,73.9,30.10,NE,45,0.0,-999.0,52,-99.99,,,0.00,Acu-Link.com,2013-07-16 21:27:00,
2013-07-16 16:42:00,94.8,74.4,30.12,WSW,247,4.7,-999.0,52,-99.99,,,0.00,Acu-Link.com,2013-07-16 21:42:00,
2013-07-16 16:57:00,95.2,74.2,30.11,SW,225,8.3,-999.0,51,-99.99,,,0.00,Acu-Link.com,2013-07-16 21:57:00,
2013-07-16 17:12:00,94.6,73.6,30.11,South,180,2.2,-999.0,51,-99.99,,,0.00,Acu-Link.com,2013-07-16 22:12:00,
2013-07-16 17:28:00,94.5,74.1,30.11,South,180,4.7,-999.0,52,-99.99,,,0.00,Acu-Link.com,2013-07-16 22:28:00,
2013-07-16 17:43:00,94.8,73.8,30.11,SSW,202,5.8,-999.0,51,-99.99,,,0.00,Acu-Link.com,2013-07-16 22:43:00,
2013-07-16 17:58:00,94.1,73.2,30.12,South,180,4.2,-999.0,51,-99.99,,,0.00,Acu-Link.com,2013-07-16 22:58:00,
2013-07-16 18:13:00,95.9,74.2,30.11,ENE,67,2.7,-999.0,50,-99.99,,,0.00,Acu-Link.com,2013-07-16 23:13:00,
2013-07-16 18:28:00,97.5,74.5,30.11,SSW,202,3.7,-999.0,48,-99.99,,,0.00,Acu-Link.com,2013-07-16 23:28:00,
2013-07-16 18:43:00,95.7,73.4,30.12,SSW,202,1.7,-999.0,49,-99.99,,,0.00,Acu-Link.com,2013-07-16 23:43:00,
2013-07-16 18:58:00,97.3,74.3,30.11,ESE,112,3.7,-999.0,48,-99.99,,,0.00,Acu-Link.com,2013-07-16 23:58:00,
2013-07-16 19:13:00,95.9,74.8,30.11,ESE,112,2.7,-999.0,51,-99.99,,,0.00,Acu-Link.com,2013-07-17 00:13:00,
2013-07-16 19:28:00,93.7,73.4,30.11,ENE,67,0.0,-999.0,52,-99.99,,,0.00,Acu-Link.com,2013-07-17 00:28:00,
2013-07-16 19:44:00,90.5,74.2,30.12,ENE,67,4.2,-999.0,59,-99.99,,,0.00,Acu-Link.com,2013-07-17 00:44:00,
2013-07-16 19:59:00,88.9,75.6,30.12,East,90,3.2,-999.0,65,-99.99,,,0.00,Acu-Link.com,2013-07-17 00:59:00,
2013-07-16 20:14:00,87.4,75.5,30.13,NE,45,3.2,-999.0,68,-99.99,,,0.00,Acu-Link.com,2013-07-17 01:14:00,
2013-07-16 20:29:00,86.5,76.0,30.13,East,90,2.7,-999.0,71,-99.99,,,0.00,Acu-Link.com,2013-07-17 01:29:00,
2013-07-16 20:44:00,85.5,75.4,30.14,ESE,112,4.2,-999.0,72,-99.99,,,0.00,Acu-Link.com,2013-07-17 01:44:00,
2013-07-16 20:59:00,84.6,75.8,30.14,SSE,157,2.2,-999.0,75,-99.99,,,0.00,Acu-Link.com,2013-07-17 01:59:00,
2013-07-16 21:14:00,84.0,76.0,30.15,SSE,157,2.7,-999.0,77,-99.99,,,0.00,Acu-Link.com,2013-07-17 02:14:00,
2013-07-16 21:29:00,83.8,75.4,30.15,SSW,202,2.7,-999.0,76,-99.99,,,0.00,Acu-Link.com,2013-07-17 02:29:00,
2013-07-16 21:44:00,82.6,75.0,30.16,SSW,202,3.7,-999.0,78,-99.99,,,0.00,Acu-Link.com,2013-07-17 02:44:00,
2013-07-16 22:00:00,81.7,74.5,30.16,SE,135,2.7,-999.0,79,-99.99,,,0.00,Acu-Link.com,2013-07-17 03:00:00,
2013-07-16 22:15:00,80.8,74.8,30.17,SSE,157,2.7,-999.0,82,-99.99,,,0.00,Acu-Link.com,2013-07-17 03:15:00,
2013-07-16 22:31:00,80.2,74.6,30.17,SSE,157,2.2,-999.0,83,-99.99,,,0.00,Acu-Link.com,2013-07-17 03:31:00,
2013-07-16 22:46:00,80.1,74.1,30.18,South,180,2.7,-999.0,82,-99.99,,,0.00,Acu-Link.com,2013-07-17 03:46:00,
2013-07-16 23:01:00,79.7,74.1,30.18,ESE,112,1.7,-999.0,83,-99.99,,,0.00,Acu-Link.com,2013-07-17 04:01:00,
2013-07-16 23:16:00,78.8,74.2,30.19,ESE,112,0.0,-999.0,86,-99.99,,,0.00,Acu-Link.com,2013-07-17 04:16:00,
2013-07-16 23:31:00,78.3,73.8,30.19,ESE,112,1.7,-999.0,86,-99.99,,,0.00,Acu-Link.com,2013-07-17 04:31:00,
2013-07-16 23:46:00,77.7,73.9,30.20,South,180,0.0,-999.0,88,-99.99,,,0.00,Acu-Link.com,2013-07-17 04:46:00,